| time (UTC) | temp C | wind direction | speed KPH | gust KPH | rain 1hr cm | rain 24hr cm | rain mn cm | humidity % | barometer mb |
| 20260906203401 | 17 | 60 | 17.7 | 0.0 | 0.00 | 0.00 | 0.00 | 64 | 1023.0 |
| 20260906201900 | 17 | 60 | 17.7 | 0.0 | 0.00 | 0.00 | 0.00 | 64 | 1023.0 |
| 20260906200401 | 17 | 60 | 17.7 | 0.0 | 0.00 | 0.00 | 0.00 | 64 | 1023.0 |
| 20260906194900 | 21 | 80 | 20.9 | 0.0 | 0.00 | 0.00 | 0.00 | 57 | 1022.0 |
| 20260906193400 | 21 | 80 | 20.9 | 0.0 | 0.00 | 0.00 | 0.00 | 57 | 1022.0 |
| 20260906191900 | 21 | 80 | 20.9 | 0.0 | 0.00 | 0.00 | 0.00 | 57 | 1022.0 |
| 20260906190401 | 21 | 80 | 20.9 | 0.0 | 0.00 | 0.00 | 0.00 | 57 | 1022.0 |
| 20260906184917 | 21 | 50 | 27.4 | 0.0 | 0.00 | 0.00 | 0.00 | 57 | 1021.0 |
| 20260906183359 | 21 | 50 | 27.4 | 0.0 | 0.00 | 0.00 | 0.00 | 57 | 1021.0 |
| 20260906181900 | 21 | 50 | 27.4 | 0.0 | 0.00 | 0.00 | 0.00 | 57 | 1021.0 |
| 20260906180400 | 21 | 50 | 27.4 | 0.0 | 0.00 | 0.00 | 0.00 | 57 | 1021.0 |
| 20260906174909 | 22 | 30 | 17.7 | 0.0 | 0.00 | 0.00 | 0.00 | 47 | 1020.0 |
| 20260906173401 | 22 | 30 | 17.7 | 0.0 | 0.00 | 0.00 | 0.00 | 47 | 1020.0 |
| 20260906171900 | 22 | 30 | 17.7 | 0.0 | 0.00 | 0.00 | 0.00 | 47 | 1020.0 |
| 20260906170408 | 22 | 30 | 17.7 | 0.0 | 0.00 | 0.00 | 0.00 | 47 | 1020.0 |
| 20260906164914 | 27 | 320 | 22.5 | 0.0 | 0.00 | 0.00 | 0.00 | 30 | 1019.0 |
| 20260906163400 | 27 | 320 | 22.5 | 0.0 | 0.00 | 0.00 | 0.00 | 30 | 1019.0 |
| 20260906161901 | 27 | 320 | 22.5 | 0.0 | 0.00 | 0.00 | 0.00 | 30 | 1019.0 |
| 20260906160359 | 27 | 320 | 22.5 | 0.0 | 0.00 | 0.00 | 0.00 | 30 | 1019.0 |
| 20260906154856 | 27 | 310 | 17.7 | 37.0 | 0.00 | 0.00 | 0.00 | 28 | 1019.0 |
| 20260906153424 | 27 | 310 | 17.7 | 37.0 | 0.00 | 0.00 | 0.00 | 28 | 1019.0 |
| 20260906151901 | 27 | 310 | 17.7 | 37.0 | 0.00 | 0.00 | 0.00 | 28 | 1019.0 |
| 20260906150401 | 27 | 310 | 17.7 | 37.0 | 0.00 | 0.00 | 0.00 | 28 | 1019.0 |
| 20260906144901 | 27 | 330 | 22.5 | 40.2 | 0.00 | 0.00 | 0.00 | 32 | 1018.0 |
| 20260906143359 | 27 | 330 | 22.5 | 40.2 | 0.00 | 0.00 | 0.00 | 32 | 1018.0 |
| 20260906141931 | 27 | 330 | 22.5 | 40.2 | 0.00 | 0.00 | 0.00 | 32 | 1018.0 |
| 20260906140359 | 27 | 330 | 22.5 | 40.2 | 0.00 | 0.00 | 0.00 | 32 | 1018.0 |
| 20260906134859 | 27 | 300 | 32.2 | 0.0 | 0.00 | 0.00 | 0.00 | 30 | 1018.0 |
| 20260906133400 | 27 | 300 | 32.2 | 0.0 | 0.00 | 0.00 | 0.00 | 30 | 1018.0 |
| 20260906131859 | 27 | 300 | 32.2 | 0.0 | 0.00 | 0.00 | 0.00 | 30 | 1018.0 |
| 20260906130401 | 27 | 300 | 32.2 | 0.0 | 0.00 | 0.00 | 0.00 | 30 | 1018.0 |
| 20260906124854 | 27 | 330 | 29.0 | 0.0 | 0.00 | 0.00 | 0.00 | 34 | 1019.0 |
| 20260906123357 | 27 | 330 | 29.0 | 0.0 | 0.00 | 0.00 | 0.00 | 34 | 1019.0 |
| 20260906121853 | 27 | 330 | 29.0 | 0.0 | 0.00 | 0.00 | 0.00 | 34 | 1019.0 |
| 20260906120356 | 27 | 330 | 29.0 | 0.0 | 0.00 | 0.00 | 0.00 | 34 | 1019.0 |
| 20260906114900 | 27 | 320 | 17.7 | 0.0 | 0.00 | 0.00 | 0.00 | 37 | 1019.0 |
| 20260906113359 | 27 | 320 | 17.7 | 0.0 | 0.00 | 0.00 | 0.00 | 37 | 1019.0 |
| 20260906111858 | 27 | 320 | 17.7 | 0.0 | 0.00 | 0.00 | 0.00 | 37 | 1019.0 |
| 20260906110400 | 27 | 320 | 17.7 | 0.0 | 0.00 | 0.00 | 0.00 | 37 | 1019.0 |
| 20260906104859 | 26 | 330 | 17.7 | 0.0 | 0.00 | 0.00 | 0.00 | 34 | 1019.0 |
| 20260906103400 | 26 | 330 | 17.7 | 0.0 | 0.00 | 0.00 | 0.00 | 34 | 1019.0 |
| 20260906101857 | 26 | 330 | 17.7 | 0.0 | 0.00 | 0.00 | 0.00 | 34 | 1019.0 |
| 20260906100400 | 26 | 330 | 17.7 | 0.0 | 0.00 | 0.00 | 0.00 | 34 | 1019.0 |
| 20260906094900 | 23 | 350 | 9.7 | 0.0 | 0.00 | 0.00 | 0.00 | 44 | 1019.0 |
| 20260906093400 | 23 | 350 | 9.7 | 0.0 | 0.00 | 0.00 | 0.00 | 44 | 1019.0 |
| 20260906091901 | 23 | 350 | 9.7 | 0.0 | 0.00 | 0.00 | 0.00 | 44 | 1019.0 |
| 20260906090401 | 23 | 350 | 9.7 | 0.0 | 0.00 | 0.00 | 0.00 | 44 | 1019.0 |
| 20260906084900 | 23 | 20 | 12.9 | 0.0 | 0.00 | 0.00 | 0.00 | 44 | 1019.0 |
| 20260906083359 | 23 | 20 | 12.9 | 0.0 | 0.00 | 0.00 | 0.00 | 44 | 1019.0 |
| 20260906081859 | 23 | 20 | 12.9 | 0.0 | 0.00 | 0.00 | 0.00 | 44 | 1019.0 |
| 20260906080400 | 23 | 20 | 12.9 | 0.0 | 0.00 | 0.00 | 0.00 | 44 | 1019.0 |
| 20260906074859 | 22 | 30 | 16.1 | 0.0 | 0.00 | 0.00 | 0.00 | 50 | 1019.0 |
| 20260906073359 | 22 | 30 | 16.1 | 0.0 | 0.00 | 0.00 | 0.00 | 50 | 1019.0 |
| 20260906071900 | 22 | 30 | 16.1 | 0.0 | 0.00 | 0.00 | 0.00 | 50 | 1019.0 |
| 20260906070359 | 22 | 30 | 16.1 | 0.0 | 0.00 | 0.00 | 0.00 | 50 | 1019.0 |
| 20260906064859 | 21 | 20 | 16.1 | 0.0 | 0.00 | 0.00 | 0.00 | 53 | 1019.0 |
| 20260906063400 | 21 | 20 | 16.1 | 0.0 | 0.00 | 0.00 | 0.00 | 53 | 1019.0 |
| 20260906062022 | -17 | 0.0 | 0.0 | 0.00 | 0.00 | 0.00 | |||
| 20260906060359 | 21 | 20 | 16.1 | 0.0 | 0.00 | 0.00 | 0.00 | 53 | 1019.0 |
| 20260906054925 | 18 | 20 | 14.5 | 0.0 | 0.00 | 0.00 | 0.00 | 64 | 1018.0 |
| 20260906053359 | 18 | 20 | 14.5 | 0.0 | 0.00 | 0.00 | 0.00 | 64 | 1018.0 |
| 20260906051900 | 18 | 20 | 14.5 | 0.0 | 0.00 | 0.00 | 0.00 | 64 | 1018.0 |
| 20260906050522 | -17 | 0.0 | 0.0 | 0.00 | 0.00 | 0.00 | |||
| 20260906045022 | -17 | 0.0 | 0.0 | 0.00 | 0.00 | 0.00 | |||
| 20260906043511 | -17 | 0.0 | 0.0 | 0.00 | 0.00 | 0.00 | |||
| 20260906042023 | -17 | 0.0 | 0.0 | 0.00 | 0.00 | 0.00 | |||
| 20260906040419 | 17 | 20 | 14.5 | 0.0 | 0.00 | 0.00 | 0.00 | 68 | 1017.0 |
| 20260906034922 | -17 | 0.0 | 0.0 | 0.00 | 0.00 | 0.00 | |||
| 20260906033522 | -17 | 0.0 | 0.0 | 0.00 | 0.00 | 0.00 | |||
| 20260906032024 | -17 | 0.0 | 0.0 | 0.00 | 0.00 | 0.00 | |||
| 20260906030522 | -17 | 0.0 | 0.0 | 0.00 | 0.00 | 0.00 | |||
| 20260906024927 | 18 | 300 | 4.8 | 0.0 | 0.00 | 0.00 | 0.00 | 68 | 1016.0 |
| 20260906023400 | -17 | 0.0 | 0.0 | 0.00 | 0.00 | 0.00 | |||
| 20260906021906 | -17 | 0.0 | 0.0 | 0.00 | 0.00 | 0.00 | |||
| 20260906020401 | -17 | 0.0 | 0.0 | 0.00 | 0.00 | 0.00 | |||
| 20260906014901 | -17 | 0.0 | 0.0 | 0.00 | 0.00 | 0.00 | |||
| 20260906013523 | -17 | 0.0 | 0.0 | 0.00 | 0.00 | 0.00 | |||
| 20260906011859 | -17 | 0.0 | 0.0 | 0.00 | 0.00 | 0.00 | |||
| 20260906010359 | -17 | 0.0 | 0.0 | 0.00 | 0.00 | 0.00 | |||
| 20260906005022 | -17 | 0.0 | 0.0 | 0.00 | 0.00 | 0.00 | |||
| 20260906003532 | -17 | 0.0 | 0.0 | 0.00 | 0.00 | 0.00 | |||
| 20260906002023 | -17 | 0.0 | 0.0 | 0.00 | 0.00 | 0.00 | |||
| 20260906000513 | -17 | 0.0 | 0.0 | 0.00 | 0.00 | 0.00 | |||
| 20260905234910 | -17 | 0.0 | 0.0 | 0.00 | 0.00 | 0.00 | |||
| 20260905233359 | -17 | 0.0 | 0.0 | 0.00 | 0.00 | 0.00 | |||
| 20260905232025 | -17 | 0.0 | 0.0 | 0.00 | 0.00 | 0.00 | |||
| 20260905230432 | -17 | 0.0 | 0.0 | 0.00 | 0.00 | 0.00 | |||
| 20260905225024 | -17 | 0.0 | 0.0 | 0.00 | 0.00 | 0.00 | |||
| 20260905223413 | -17 | 0.0 | 0.0 | 0.00 | 0.00 | 0.00 | |||
| 20260905222009 | -17 | 0.0 | 0.0 | 0.00 | 0.00 | 0.00 | |||
| 20260905220522 | -17 | 0.0 | 0.0 | 0.00 | 0.00 | 0.00 | |||
| 20260905215021 | -17 | 0.0 | 0.0 | 0.00 | 0.00 | 0.00 | |||
| 20260905213400 | -17 | 0.0 | 0.0 | 0.00 | 0.00 | 0.00 | |||
| 20260905211856 | -17 | 0.0 | 0.0 | 0.00 | 0.00 | 0.00 | |||
| 20260905210400 | -17 | 0.0 | 0.0 | 0.00 | 0.00 | 0.00 | |||
| 20260905204910 | 23 | 250 | 11.3 | 0.0 | 0.00 | 0.00 | 0.00 | 41 | 1014.0 |